TimeCST,TemperatureF,Dew PointF,Humidity,Sea Level PressureIn,VisibilityMPH,Wind Direction,Wind SpeedMPH,Gust SpeedMPH,PrecipitationIn,Events,Conditions,WindDirDegrees,DateUTC
12:15 AM,1.4,-4.0,78,30.18,10.0,NW,16.1,-,N/A,,Partly Cloudy,320,2014-02-02 06:15:00
12:35 AM,1.4,-5.8,72,30.19,10.0,NW,15.0,-,N/A,,Clear,310,2014-02-02 06:35:00
12:55 AM,-0.4,-5.8,78,30.19,10.0,NW,15.0,-,N/A,,Clear,310,2014-02-02 06:55:00
1:15 AM,-0.4,-5.8,78,30.20,10.0,NW,15.0,-,N/A,,Clear,310,2014-02-02 07:15:00
1:35 AM,-2.2,-7.6,78,30.20,10.0,NW,10.4,-,N/A,,Clear,320,2014-02-02 07:35:00
1:55 AM,-2.2,-9.4,71,30.21,10.0,NW,10.4,-,N/A,,Clear,310,2014-02-02 07:55:00
2:15 AM,-4.0,-9.4,78,30.21,10.0,NW,10.4,-,N/A,,Clear,310,2014-02-02 08:15:00
2:35 AM,-4.0,-9.4,78,30.21,10.0,NW,10.4,-,N/A,,Clear,320,2014-02-02 08:35:00
2:55 AM,-7.6,-13.0,77,30.21,10.0,NW,9.2,-,N/A,,Clear,320,2014-02-02 08:55:00
3:15 AM,-7.6,-13.0,77,30.21,10.0,NW,11.5,-,N/A,,Clear,320,2014-02-02 09:15:00
3:35 AM,-7.6,-13.0,77,30.22,10.0,NW,9.2,-,N/A,,Clear,310,2014-02-02 09:35:00
3:55 AM,-7.6,-13.0,77,30.22,10.0,NW,11.5,-,N/A,,Clear,310,2014-02-02 09:55:00
4:15 AM,-7.6,-13.0,77,30.23,10.0,NW,11.5,-,N/A,,Clear,310,2014-02-02 10:15:00
4:35 AM,-9.4,-14.8,77,30.23,10.0,WNW,10.4,-,N/A,,Clear,300,2014-02-02 10:35:00
4:55 AM,-9.4,-14.8,77,30.24,10.0,WNW,10.4,-,N/A,,Clear,300,2014-02-02 10:55:00
5:15 AM,-11.2,-16.6,77,30.24,10.0,WNW,9.2,-,N/A,,Clear,300,2014-02-02 11:15:00
5:35 AM,-11.2,-16.6,77,30.25,10.0,WNW,9.2,-,N/A,,Clear,300,2014-02-02 11:35:00
5:55 AM,-11.2,-16.6,77,30.25,10.0,NW,9.2,-,N/A,,Clear,310,2014-02-02 11:55:00
6:15 AM,-11.2,-16.6,77,30.25,10.0,NW,6.9,-,N/A,,Clear,310,2014-02-02 12:15:00
6:35 AM,-13.0,-18.4,77,30.26,10.0,NW,6.9,-,N/A,,Clear,320,2014-02-02 12:35:00
6:55 AM,-11.2,-16.6,77,30.26,10.0,NW,5.8,-,N/A,,Clear,320,2014-02-02 12:55:00
7:15 AM,-11.2,-16.6,77,30.27,10.0,NW,9.2,-,N/A,,Clear,310,2014-02-02 13:15:00
7:35 AM,-14.8,-20.2,77,30.27,10.0,NW,10.4,-,N/A,,Clear,310,2014-02-02 13:35:00
7:55 AM,-14.8,-20.2,77,30.29,10.0,NW,11.5,-,N/A,,Clear,320,2014-02-02 13:55:00
8:15 AM,-16.6,-22.0,76,30.30,10.0,NW,10.4,-,N/A,,Clear,320,2014-02-02 14:15:00
8:35 AM,-13.0,-18.4,77,30.30,10.0,NW,5.8,-,N/A,,Clear,310,2014-02-02 14:35:00
8:55 AM,-11.2,-18.4,70,30.31,10.0,Calm,Calm,-,N/A,,Clear,0,2014-02-02 14:55:00
9:15 AM,-9.4,-14.8,77,30.32,10.0,Calm,Calm,-,N/A,,Clear,0,2014-02-02 15:15:00
9:35 AM,-5.8,-11.2,77,30.34,10.0,Calm,Calm,-,N/A,,Clear,0,2014-02-02 15:35:00
9:55 AM,-7.6,-13.0,77,30.34,9.0,NW,3.5,-,N/A,,Clear,320,2014-02-02 15:55:00
10:15 AM,-5.8,-11.2,77,30.33,10.0,NW,6.9,-,N/A,,Clear,320,2014-02-02 16:15:00
10:35 AM,-2.2,-7.6,78,30.32,10.0,NNW,6.9,-,N/A,,Clear,330,2014-02-02 16:35:00
10:55 AM,-0.4,-7.6,72,30.31,-9999.0,NNW,6.9,-,N/A,,Clear,340,2014-02-02 16:55:00
11:15 AM,-0.4,-5.8,78,30.32,10.0,NNW,8.1,-,N/A,,Clear,330,2014-02-02 17:15:00
11:35 AM,1.4,-5.8,72,30.32,10.0,Calm,Calm,-,N/A,,Clear,0,2014-02-02 17:35:00
11:55 AM,3.2,-5.8,66,30.31,10.0,Calm,Calm,-,N/A,,Clear,0,2014-02-02 17:55:00
12:15 PM,3.2,-4.0,72,30.30,10.0,NW,9.2,-,N/A,,Clear,310,2014-02-02 18:15:00
12:35 PM,5.0,-4.0,66,30.29,10.0,NW,11.5,-,N/A,,Clear,320,2014-02-02 18:35:00
12:55 PM,5.0,-4.0,66,30.29,10.0,NNW,8.1,-,N/A,,Clear,330,2014-02-02 18:55:00
1:15 PM,5.0,-4.0,66,30.30,10.0,NNW,5.8,12.7,N/A,,Unknown,330,2014-02-02 19:15:00
1:35 PM,6.8,-2.2,67,30.29,10.0,NNW,8.1,-,N/A,,Clear,330,2014-02-02 19:35:00
1:55 PM,6.8,-2.2,67,30.29,10.0,NW,9.2,-,N/A,,Clear,310,2014-02-02 19:55:00
2:15 PM,6.8,-2.2,67,30.29,10.0,NNW,8.1,-,N/A,,Clear,330,2014-02-02 20:15:00
2:35 PM,6.8,-2.2,67,30.30,10.0,NW,9.2,-,N/A,,Clear,320,2014-02-02 20:35:00
2:55 PM,6.8,-2.2,67,30.31,10.0,WNW,4.6,-,N/A,,Clear,290,2014-02-02 20:55:00
3:15 PM,6.8,-2.2,67,30.31,10.0,WSW,4.6,-,N/A,,Clear,240,2014-02-02 21:15:00
3:35 PM,6.8,-2.2,67,30.31,10.0,WSW,4.6,-,N/A,,Clear,250,2014-02-02 21:35:00
3:55 PM,5.0,-2.2,72,30.31,10.0,West,4.6,-,N/A,,Clear,260,2014-02-02 21:55:00
4:15 PM,5.0,-2.2,72,30.31,10.0,West,6.9,-,N/A,,Clear,270,2014-02-02 22:15:00
4:35 PM,5.0,-4.0,66,30.31,10.0,West,6.9,-,N/A,,Clear,270,2014-02-02 22:35:00
4:55 PM,5.0,-4.0,66,30.30,10.0,West,4.6,-,N/A,,Clear,260,2014-02-02 22:55:00
5:15 PM,1.4,-5.8,72,30.31,10.0,SSW,4.6,-,N/A,,Clear,210,2014-02-02 23:15:00
5:35 PM,-0.4,-5.8,78,30.31,10.0,South,4.6,-,N/A,,Clear,180,2014-02-02 23:35:00
5:55 PM,1.4,-4.0,78,30.30,10.0,SSW,4.6,-,N/A,,Clear,210,2014-02-02 23:55:00
6:15 PM,1.4,-4.0,78,30.29,10.0,Calm,Calm,-,N/A,,Clear,0,2014-02-03 00:15:00
6:35 PM,-0.4,-4.0,85,30.29,10.0,SSE,3.5,-,N/A,,Clear,160,2014-02-03 00:35:00
6:55 PM,-0.4,-4.0,85,30.29,10.0,South,4.6,-,N/A,,Clear,180,2014-02-03 00:55:00
7:15 PM,-2.2,-5.8,85,30.29,10.0,South,4.6,-,N/A,,Clear,190,2014-02-03 01:15:00
7:35 PM,-2.2,-4.0,92,30.28,10.0,South,4.6,-,N/A,,Clear,190,2014-02-03 01:35:00
7:55 PM,-2.2,-5.8,85,30.27,10.0,South,5.8,-,N/A,,Clear,190,2014-02-03 01:55:00
8:15 PM,-4.0,-5.8,92,30.28,10.0,South,6.9,-,N/A,,Clear,180,2014-02-03 02:15:00
8:35 PM,-4.0,-7.6,85,30.27,10.0,South,6.9,-,N/A,,Clear,180,2014-02-03 02:35:00
8:55 PM,-5.8,-9.4,84,30.28,10.0,South,5.8,-,N/A,,Clear,170,2014-02-03 02:55:00
9:15 PM,-5.8,-9.4,84,30.29,10.0,South,5.8,-,N/A,,Clear,170,2014-02-03 03:15:00
9:35 PM,-5.8,-9.4,84,30.29,10.0,South,5.8,-,N/A,,Clear,170,2014-02-03 03:35:00
9:55 PM,-7.6,-11.2,84,30.29,10.0,SSE,5.8,-,N/A,,Clear,150,2014-02-03 03:55:00
10:15 PM,-4.0,-7.6,85,30.29,10.0,South,3.5,-,N/A,,Clear,170,2014-02-03 04:15:00
10:35 PM,-5.8,-9.4,84,30.29,10.0,South,4.6,-,N/A,,Clear,180,2014-02-03 04:35:00
10:55 PM,-4.0,-7.6,85,30.29,10.0,SSE,3.5,-,N/A,,Clear,160,2014-02-03 04:55:00
11:15 PM,-5.8,-11.2,77,30.30,9.0,SSE,5.8,-,N/A,,Clear,160,2014-02-03 05:15:00
11:35 PM,-5.8,-11.2,77,30.30,8.0,SSE,5.8,-,N/A,,Clear,160,2014-02-03 05:35:00
11:55 PM,-7.6,-13.0,77,30.29,6.0,SSE,5.8,-,N/A,,Haze,150,2014-02-03 05:55:00